415P/Tenagra (2021)

Japanese version
Home page
Updated on July 10, 2021

---------------------------------------------------------------------

* Profile

Designation 415P/2020 Y4
Recovery Date December 25, 2020 and January 13, 2021
Magnitude 21.1 mag and 19.7 mag
Recoverer Pan-STARRS 2 telescope (Haleakala), E. Schwab (Egelsbach, Germany)

* Pictures

* Orbital Elements

Epoch 2021 Mar. 7.0 TT = JDT 2459280.5                                          
T 2021 Feb. 15.45556 TT                                 Rudenko                 
q   3.3140616            (2000.0)            P               Q                  
n   0.11802273     Peri.  346.31183     -0.84687469     -0.50124714             
a   4.1161602      Node   160.29407     +0.52390266     -0.84371444             
e   0.1948657      Incl.   31.79009     +0.09126473     +0.19208655             
P   8.35                                                                        
From 80 observations 2013 Feb. 16-2021 Jan. 14, mean residual 0".6.             

* Magnitudes Graph

        m1 = 12.0 + 5 log d + 10.0 log r

---------------------------------------------------------------------

The orbital elements are published on M.P.E.C. 2021-B17.
The magnitudes graphs are made with Comet for Windows.

---------------------------------------------------------------------

Copyright(C) Seiichi Yoshida (comet@aerith.net). All rights reserved.